EHI
0 0 0 0 0 0 0 0 0 0 0 0 0 0 0 0 0 0 0 0 0 0 0 0 0 0 0 0 0 0 0 0 0 0 0 0 0 0 0 0 0 0 0 0
0 0 0 0 0 0 0 0 0 0 0 0 0 0 0 0 0 0 0 0 0 0 0 0 0 0 0 0 0 0 0 0 0 0 0 0 0 0 0 0 0 0 0 0
0 0 0 0 0 0 0 0 0 0 0 0 0 0 0 0 0 0 0 0 0 0 0 0 0 0 0 0 0 0 0 0 0 0 0 0 0 0 0 0 0 0 0 0
0 0 0 0 0 0 0 0 0 0 0 0 0 0 0 0 0 0 0 0 0 0 0 0 0 0 0 0 0 0 0 0 0 0 0 0 0 0 0 0 0 0 0 0
0 0 0 0 0 0 0 0 0 0 0 0 0 0 0 0 0 0 0 0 0 0 0 0 0 0 0 0 0 0 0 0 0 0 0 0 0 0 0 0 0 0 0 0
0 0 0 0 0 0 0 0 0 0 0 0 0 0 0 0 0 0 0 0 0 0 0 0 0 0 0 0 0 0 0 0 0 0 0 0 0 0 0 0 0 0 0 0
0 0 0 0 0 0 0 0 0 0 0 0 0 0 0 0 0 0 0 0 0 0 0 0 0 0 0 0 0 0 0 0 0 0 0 0 0 0 0 0 0 0 0 0
0 0 0 0 0 0 0 0 0 0 0 0 0 0 0 0 0 0 0 0 0 0 0 0 0 0 0 0 0 0 0 0 0 0 0 0 0 0 0 0 0 0 0 0
0 0 0 0 0 0 0 0 0 0 0 0 0 0 0 0 0 0 0 0 0 0 0 0 0 0 0 0 0 0 0 0 0 0 0 0 0 0 0 0 0 0 0 0
0 0 0 0 0 0 0 0 0 0 0 0 0 0 0 0 0 0 0 0 0 0 0 0 0 0 0 0 0 0 0 0 0 0 0 0 0 0 0 0 0 0 0 0
0 0 0 0 0 0 0 0 0 0 0 0 0 0 0 0 0 0 0 0 0 0 0 0 0 0 0 0 0 0 0 0 0 0 0 0 0 0 0 0 0 0 0 0
0 0 0 0 0 0 0 0 0 0 0 0 0 0 0 0 0 0 0 0 0 0 0 0 0 0 0 0 0 0 0 0 0 0 0 0 0 0 0 0 0 0 0 0
0 0 0 0 0 0 0 0 0 0 0 0 0 0 0 0 0 0 0 0 0 0 0 0 0 0 0 0 0 0 0 0 0 0 0 0 0 0 0 0 0 0 0 0
0 0 0 0 0 0 0 0 0 0 0 0 0 0 0 0 0 0 0 0 0 0 0 0 0 0 0 0 0 0 0 0 0 0 0 0 0 0 0 0 0 0 0 0
0 0 0 0 0 0 0 0 0 0 0 0 0 0 0 0 0 0 0 0 0 0 0 0 0 0 0 0 0 0 0 0 0 0 0 0 0 0 0 0 0 0 0 0
0 0 0 0 0 0 0 0 0 0 0 0 0 0 0 0 0 0 0 0 0 0 0 0 0 0 0 0 0 0 0 0 0 0 0 0 0 0 0 0 0 0 0 0
0 0 0 0 0 0 0 0 0 0 0 0 0 0 0 0 0 0 0 0 0 0 0 0 0 0 0 0 0 0 0 0 0 0 0 0 0 0 0 0 0 0 0 0
0 0 0 0 0 0 0 0 0 0 0 0 0 0 0 0 0 0 0 0 0 0 0 0 0 0 0 0 0 0 0 0 0 0 0 0 0 0 0 0 0 0 0 0
0 0 0 0 0 0 0 0 0 0 0 0 0 0 0 0 0 0 0 0 0 0 0 0 0 0 0 0 0 0 0 0 0 0 0 0 0 0 0 0 0 0 0 0
0 0 0 0 0 0 0 0 0 0 0 0 0 0 0 0 0 0 0 0 0 0 0 0 0 0 0 0 0 0 0 0 0 0 0 0 0 0 0 0 0 0 0 0
0 0 0 0 0 0 0 0 0 0 0 0 0 0 0 0 0 0 0 0 0 0 0 0 0 0 0 0 0 0 0 0 0 0 0 0 0 0 0 0 0 0 0 0
0 0 0 0 0 0 0 0 0 0 0 0 0 0 0 0 0 0 0 0 0 0 0 0 0 0 0 0 0 0 0 0 0 0 0 0 0 0 0 0 0 0 0 0
0 0 0 0 0 0 0 0 0 0 0 0 0 0 0 0 0 0 0 0 0 0 0 0 0 0 0 0 0 0 0 0 0 0 0 0 0 0 0 0 0 0 0 0
0 0 0 0 0 0 0 0 0 0 0 0 0 0 0 0 0 0 0 0 0 0 0 0 0 0 0 0 0 0 0 0 0 0 0 0 0 0 0 0 0 0 0 0
0 0 0 0 0 0 0 0 0 0 0 0 0 0 0 0 0 0 0 0 0 0 0 0 0 0 0 0 0 0 0 0 0 0 0 0 0 0 0 0 0 0 0 0
0 0 0 0 0 0 0 0 0 0 0 0 0 0 0 0 0 0 0 0 0 0 0 0 0 0 0 0 0 0 0 0 0 0 0 0 0 0 0 0 0 0 0 0
Wind_Speed
2 3 3 5 5 3 3 3 4 4 3 2 6 10 10 6 3 4 4 3 3 4 3 2 2 2 1 2 1 0 1 1 1 1 1 1 2 2 1 2 3 3 3 4
3 2 4 2 2 2 2 2 4 4 3 2 5 10 8 4 4 4 4 4 4 3 3 3 3 3 2 1 1 1 1 1 2 2 2 2 2 2 2 2 2 3 3 4
4 3 2 2 2 2 2 4 4 4 4 2 4 7 4 3 2 2 2 2 2 2 3 3 2 2 2 2 2 2 2 2 2 2 1 0 0 0 0 1 2 3 3 4
1 2 1 2 3 3 4 3 3 2 1 3 1 6 6 3 3 3 3 3 3 3 2 2 2 2 2 3 2 2 2 2 1 1 2 2 2 2 3 2 2 3 3 3
2 1 2 2 3 3 3 0 0 1 2 2 1 3 9 2 4 5 4 4 3 3 3 3 3 3 3 2 2 2 2 2 2 1 2 3 2 3 2 2 2 2 2 3
2 1 2 2 1 2 2 3 3 3 2 3 5 4 8 3 5 4 4 4 4 4 2 2 2 2 2 2 2 2 2 2 2 1 1 2 3 3 2 2 2 2 2 2
2 1 1 1 2 1 3 4 3 4 2 6 2 4 10 5 4 4 4 4 4 3 2 2 2 3 3 3 2 2 2 3 3 2 2 2 3 3 3 3 3 3 2 2
2 3 2 0 2 3 2 4 5 5 5 5 2 7 8 4 3 2 3 3 2 3 3 3 3 3 3 3 3 2 2 3 3 2 2 2 2 2 2 3 3 3 3 3
4 3 1 1 1 4 3 2 3 4 1 3 6 7 8 2 2 2 2 2 3 4 4 3 3 3 3 3 3 3 3 3 3 3 3 2 2 2 3 3 2 3 3 3
4 2 3 1 1 1 3 5 4 3 2 5 6 5 5 4 4 3 3 3 4 4 4 4 3 3 3 3 3 3 3 3 4 3 3 3 3 3 3 2 3 3 3 2
2 3 2 0 3 4 3 2 3 3 3 4 5 8 4 4 4 4 4 4 4 5 5 5 4 4 4 4 3 4 4 4 4 4 3 3 3 3 3 3 3 3 3 3
2 3 2 4 2 1 3 4 5 4 4 4 3 10 3 3 3 2 4 4 4 4 5 5 4 4 4 4 4 4 4 4 4 4 3 3 3 3 3 3 3 3 3 3
3 4 1 3 2 1 2 3 3 3 3 4 5 9 2 1 2 3 4 5 5 4 5 5 5 5 5 5 5 4 4 4 4 4 3 3 3 3 3 3 3 3 3 3
3 3 5 7 5 3 4 4 5 5 4 6 10 10 8 6 5 6 6 5 5 4 5 5 6 6 6 5 5 5 5 4 4 3 3 3 3 3 3 3 3 3 3 3
3 3 4 5 4 3 5 7 8 9 9 9 9 9 11 7 6 7 5 5 5 6 6 6 7 7 6 5 5 5 4 4 3 3 3 3 3 3 2 2 2 2 3 3
2 2 1 3 3 4 7 9 10 10 9 10 9 13 7 5 5 5 5 5 6 7 7 8 7 7 6 5 5 5 4 4 3 3 3 3 2 2 2 2 2 2 2 3
2 3 1 3 3 3 8 9 9 7 7 7 11 11 3 5 7 7 6 5 6 7 8 8 7 7 6 5 5 4 4 4 3 3 3 3 2 2 2 2 2 2 3 2
4 3 2 1 2 6 7 2 5 6 7 8 8 7 5 6 7 7 5 4 6 7 7 7 7 6 5 4 4 3 3 3 3 3 3 3 2 2 2 2 2 3 3 3
4 5 3 2 2 8 7 3 4 4 7 6 8 8 5 3 5 4 3 4 6 7 6 6 5 5 4 3 3 2 3 2 2 3 3 3 2 2 2 3 3 3 2 2
2 2 3 3 3 7 5 1 2 2 6 3 4 6 3 1 3 5 4 5 6 6 5 4 4 4 3 3 2 2 2 2 3 3 3 3 3 3 3 3 3 2 2 2
2 1 3 4 4 9 5 1 3 2 6 3 2 3 2 3 5 5 6 6 5 5 5 4 4 3 3 3 2 2 3 4 4 4 3 3 3 3 3 3 3 2 2 2
6 5 4 4 4 9 2 3 5 5 3 3 3 2 2 4 4 4 5 5 5 5 5 5 4 4 4 3 2 2 3 4 4 3 3 3 3 3 2 2 2 2 1 2
6 7 6 8 7 3 2 4 3 2 3 3 2 2 2 3 4 4 4 5 5 5 5 4 4 4 4 3 2 3 4 4 3 3 3 3 3 2 2 2 2 2 2 2
4 2 3 4 6 4 4 4 3 2 3 3 2 2 2 3 4 4 4 4 5 5 4 4 4 4 5 4 3 3 4 4 3 3 3 3 3 3 2 2 2 2 2 2
4 4 3 5 6 4 4 4 4 3 2 2 2 2 2 2 3 3 4 4 4 5 4 3 3 4 5 5 5 5 4 3 3 3 3 3 3 2 2 2 2 2 3 3
5 6 6 6 5 4 5 3 2 2 3 2 2 2 2 2 3 3 4 4 4 4 4 4 4 5 5 5 6 5 4 3 2 3 3 2 2 2 2 2 3 4 4 5
Wind_Direction
43 83 202 214 202 197 178 206 252 266 293 285 262 272 281 290 289 279 284 289 286 277 294 335 356 349 19 22 18 319 194 221 159 166 195 216 225 227 225 217 203 197 196 190
59 246 239 212 186 160 181 240 266 290 317 280 276 277 275 266 249 246 256 269 279 300 333 348 0 6 360 348 338 340 267 239 210 206 199 203 217 220 216 223 221 207 199 200
177 233 209 163 160 192 233 214 233 268 323 333 313 293 267 263 252 276 270 259 269 265 287 314 335 341 344 334 310 304 279 257 240 213 180 113 70 26 265 232 227 229 213 204
214 275 156 170 211 182 249 228 221 252 322 295 359 289 281 273 293 285 287 290 281 276 273 285 303 319 319 302 299 294 286 282 268 215 179 182 205 218 234 237 235 240 224 216
238 213 179 205 220 172 213 295 225 236 182 294 267 243 281 299 278 273 271 270 276 275 259 267 275 282 301 307 309 308 323 314 294 243 211 202 224 235 244 244 241 245 238 224
243 247 195 205 205 165 151 66 47 50 75 270 227 205 275 246 242 266 265 276 287 287 278 276 296 315 316 315 321 336 346 320 310 280 234 219 226 237 242 249 237 243 248 243
328 301 315 112 89 48 82 88 28 349 326 252 215 219 252 253 246 236 256 276 292 297 300 309 322 325 321 323 328 332 329 317 313 296 271 247 239 236 234 237 230 235 246 246
163 263 242 181 158 174 183 147 161 208 237 277 261 238 255 262 262 246 250 260 292 306 303 302 302 307 312 316 326 321 309 308 307 293 281 269 251 243 240 242 243 234 238 240
172 244 310 245 187 142 146 181 160 141 187 274 266 278 293 266 281 290 299 308 308 308 307 308 314 314 311 317 320 308 301 304 302 290 279 276 267 251 248 250 252 247 252 249
151 221 283 290 76 43 157 149 117 140 188 263 282 266 257 266 262 283 296 300 304 309 312 317 315 312 310 310 310 311 306 298 297 292 280 275 268 250 244 247 256 258 261 259
123 150 297 339 195 189 143 145 141 143 171 194 271 270 234 229 241 258 272 284 298 309 313 313 314 314 315 316 311 309 312 314 309 298 282 275 274 263 248 244 252 253 255 252
133 130 233 250 257 221 195 185 160 175 225 200 226 269 280 236 250 261 290 310 314 313 313 314 315 319 319 314 312 310 312 310 300 291 280 276 277 273 263 261 263 262 256 255
146 131 63 338 326 316 227 205 183 158 154 185 209 261 306 349 340 328 315 314 317 319 321 324 325 322 317 312 310 308 306 302 302 297 283 281 283 277 272 271 270 268 264 264
134 161 189 211 228 200 233 224 194 174 202 223 230 256 285 305 309 311 310 308 304 306 312 316 317 316 314 313 311 308 305 303 303 298 285 273 267 266 270 272 269 267 266 260
118 197 227 254 266 241 239 235 217 216 218 223 244 249 265 277 284 291 291 300 304 308 311 311 312 313 314 315 312 311 307 308 308 305 294 281 271 267 273 276 276 276 270 269
115 174 203 276 268 258 261 250 232 233 233 240 259 266 263 275 286 289 286 286 291 298 302 305 307 310 309 309 311 315 314 314 310 302 298 299 293 279 271 273 275 281 281 278
152 146 159 267 304 328 267 234 214 217 218 212 237 252 300 296 291 287 282 279 285 293 296 300 303 302 301 304 306 306 306 314 318 310 306 305 294 278 271 275 279 276 273 274
158 155 167 252 23 247 247 199 192 216 240 225 244 268 267 268 282 280 263 263 287 296 295 295 294 295 295 299 307 306 314 317 314 309 306 305 295 283 278 271 268 270 272 268
166 155 156 161 240 276 283 233 182 204 263 223 236 265 276 298 311 288 257 283 285 290 290 289 289 291 293 297 303 316 319 316 314 302 298 299 291 287 285 274 268 269 265 269
86 118 144 159 207 249 258 252 177 133 278 242 225 258 274 322 298 281 306 310 306 309 312 311 317 319 313 311 319 330 315 317 307 299 294 294 286 277 279 279 272 265 257 264
133 143 182 193 230 264 260 240 122 175 260 291 247 249 231 228 245 283 310 313 313 319 325 333 333 327 318 326 339 316 309 301 298 298 294 292 288 281 278 283 277 270 275 283
179 174 190 173 212 256 228 139 187 231 288 296 280 257 245 261 282 297 307 315 325 330 333 339 340 334 334 341 344 327 314 310 314 311 308 307 305 298 298 288 291 285 274 281
202 195 191 198 218 255 199 212 245 259 281 286 278 276 260 280 290 301 308 314 321 323 328 335 336 334 338 344 339 316 311 321 328 330 323 320 316 305 300 292 286 282 264 257
245 187 194 254 263 263 260 264 274 266 263 281 281 279 270 279 288 298 307 314 320 324 327 332 337 337 333 337 334 314 314 320 324 321 318 318 322 322 320 311 298 284 270 265
217 175 205 254 275 298 274 252 260 276 288 303 312 290 266 270 291 294 302 309 314 321 326 332 335 332 328 334 333 327 323 327 331 322 317 321 322 320 324 320 304 289 276 267
195 185 190 230 228 216 257 274 254 258 278 277 301 315 310 281 284 300 304 305 312 318 325 333 336 334 331 334 331 331 330 325 321 319 318 317 318 315 313 318 326 326 311 313